Year,Month,Day,Hour,Minute,Value (Times are PST for windgust in km/hr)
2010,06,13,00,00,20.90
2010,06,13,00,01,24.20
2010,06,13,00,02,25.70
2010,06,13,00,03,22.50
2010,06,13,00,04,22.50
2010,06,13,00,05,20.90
2010,06,13,00,06,17.70
2010,06,13,00,07,19.30
2010,06,13,00,08,17.70
2010,06,13,00,09,22.50
2010,06,13,00,10,20.90
2010,06,13,00,11,17.70
2010,06,13,00,12,17.70
2010,06,13,00,18,20.90
2010,06,13,00,19,22.50
2010,06,13,00,20,20.90
2010,06,13,00,21,19.30
2010,06,13,00,22,16.10
2010,06,13,00,23,11.30
2010,06,13,00,24,16.10
2010,06,13,00,25,14.50
2010,06,13,00,26,22.50
2010,06,13,00,27,29.00
2010,06,13,00,28,20.90
2010,06,13,00,29,27.40
2010,06,13,00,30,25.70
2010,06,13,00,31,25.70
2010,06,13,00,32,24.20
2010,06,13,00,33,19.30
2010,06,13,00,34,25.70
2010,06,13,00,35,29.00
2010,06,13,00,36,25.70
2010,06,13,00,37,27.40
2010,06,13,00,38,20.90
2010,06,13,00,39,22.50
2010,06,13,00,40,25.70
2010,06,13,00,41,20.90
2010,06,13,00,42,22.50
2010,06,13,00,43,22.50
2010,06,13,00,44,25.70
2010,06,13,00,45,24.20
2010,06,13,00,46,25.70
2010,06,13,00,47,17.70
2010,06,13,00,48,19.30
2010,06,13,00,49,27.40
2010,06,13,00,50,22.50
2010,06,13,00,51,24.20
2010,06,13,00,52,19.30
2010,06,13,00,53,24.20
2010,06,13,00,54,27.40
2010,06,13,00,55,24.20
2010,06,13,00,56,24.20
2010,06,13,00,57,22.50
2010,06,13,00,58,24.20
2010,06,13,00,59,20.90
2010,06,13,01,00,24.20
2010,06,13,01,01,22.50
2010,06,13,01,02,17.70
2010,06,13,01,03,19.30
2010,06,13,01,04,24.20
2010,06,13,01,05,17.70
2010,06,13,01,06,16.10
2010,06,13,01,07,22.50
2010,06,13,01,08,20.90
2010,06,13,01,09,19.30
2010,06,13,01,10,22.50
2010,06,13,01,11,16.10
2010,06,13,01,12,17.70
2010,06,13,01,13,16.10
2010,06,13,01,14,20.90
2010,06,13,01,15,17.70
2010,06,13,01,16,14.50
2010,06,13,01,17,17.70
2010,06,13,01,18,17.70
2010,06,13,01,19,19.30
2010,06,13,01,20,17.70
2010,06,13,01,21,16.10
2010,06,13,01,22,24.20
2010,06,13,01,23,16.10
2010,06,13,01,24,19.30
2010,06,13,01,25,22.50
2010,06,13,01,26,20.90
2010,06,13,01,27,17.70
2010,06,13,01,28,17.70
2010,06,13,01,29,17.70
2010,06,13,01,30,19.30
2010,06,13,01,31,17.70
2010,06,13,01,32,16.10
2010,06,13,01,33,16.10
2010,06,13,01,34,19.30
2010,06,13,01,35,22.50
2010,06,13,01,36,17.70
2010,06,13,01,37,19.30
2010,06,13,01,38,22.50
2010,06,13,01,39,20.90
2010,06,13,01,40,25.70
2010,06,13,01,41,22.50
2010,06,13,01,42,19.30
2010,06,13,01,43,17.70
2010,06,13,01,44,27.40
2010,06,13,01,45,20.90
2010,06,13,01,46,22.50
2010,06,13,01,47,20.90
2010,06,13,01,48,20.90
2010,06,13,01,49,19.30
2010,06,13,01,50,16.10
2010,06,13,01,51,17.70
2010,06,13,01,52,17.70
2010,06,13,01,53,17.70
2010,06,13,01,54,16.10
2010,06,13,01,55,17.70
2010,06,13,01,56,20.90
2010,06,13,01,57,17.70
2010,06,13,01,58,22.50
2010,06,13,01,59,19.30
2010,06,13,02,00,16.10
2010,06,13,02,01,17.70
2010,06,13,02,02,22.50
2010,06,13,02,03,20.90
2010,06,13,02,04,20.90
2010,06,13,02,05,17.70
2010,06,13,02,06,20.90
2010,06,13,02,07,24.20
2010,06,13,02,08,17.70
2010,06,13,02,09,17.70
2010,06,13,02,10,19.30
2010,06,13,02,11,20.90
2010,06,13,02,12,16.10
2010,06,13,02,13,17.70
2010,06,13,02,14,19.30
2010,06,13,02,15,17.70
2010,06,13,02,16,16.10
2010,06,13,02,17,16.10
2010,06,13,02,18,19.30
2010,06,13,02,19,19.30
2010,06,13,02,20,22.50
2010,06,13,02,21,20.90
2010,06,13,02,22,19.30
2010,06,13,02,23,17.70
2010,06,13,02,24,17.70
2010,06,13,02,25,17.70
2010,06,13,02,26,16.10
2010,06,13,02,27,14.50
2010,06,13,02,28,17.70
2010,06,13,02,29,12.90
2010,06,13,02,30,14.50
2010,06,13,02,31,14.50
2010,06,13,02,32,17.70
2010,06,13,02,33,17.70
2010,06,13,02,34,14.50
2010,06,13,02,35,17.70
2010,06,13,02,36,19.30
2010,06,13,02,37,17.70
2010,06,13,02,38,16.10
2010,06,13,02,39,20.90
2010,06,13,02,40,17.70
2010,06,13,02,41,12.90
2010,06,13,02,42,17.70
2010,06,13,02,43,16.10
2010,06,13,02,44,20.90
2010,06,13,02,45,17.70
2010,06,13,02,46,16.10
2010,06,13,02,47,17.70
2010,06,13,02,48,14.50
2010,06,13,02,49,17.70
2010,06,13,02,50,17.70
2010,06,13,02,51,16.10
2010,06,13,02,52,19.30
2010,06,13,02,53,20.90
2010,06,13,02,54,17.70
2010,06,13,02,55,16.10
2010,06,13,02,56,17.70
2010,06,13,02,57,17.70
2010,06,13,02,58,14.50
2010,06,13,02,59,24.20
2010,06,13,03,00,17.70
2010,06,13,03,01,16.10
2010,06,13,03,02,17.70
2010,06,13,03,03,17.70
2010,06,13,03,04,11.30
2010,06,13,03,05,16.10
2010,06,13,03,06,14.50
2010,06,13,03,07,16.10
2010,06,13,03,08,17.70
2010,06,13,03,09,16.10
2010,06,13,03,10,17.70
2010,06,13,03,11,17.70
2010,06,13,03,12,16.10
2010,06,13,03,13,16.10
2010,06,13,03,14,9.60
2010,06,13,03,15,17.70
2010,06,13,03,16,17.70
2010,06,13,03,17,19.30
2010,06,13,03,18,19.30
2010,06,13,03,19,22.50
2010,06,13,03,20,14.50
2010,06,13,03,21,14.50
2010,06,13,03,22,16.10
2010,06,13,03,23,19.30
2010,06,13,03,24,27.40
2010,06,13,03,25,16.10
2010,06,13,03,26,22.50
2010,06,13,03,27,16.10
2010,06,13,03,28,9.60
2010,06,13,03,29,17.70
2010,06,13,03,30,20.90
2010,06,13,03,31,17.70
2010,06,13,03,32,25.70
2010,06,13,03,33,25.70
2010,06,13,03,34,32.20
2010,06,13,03,35,24.20
2010,06,13,03,36,20.90
2010,06,13,03,37,22.50
2010,06,13,03,38,19.30
2010,06,13,03,39,25.70
2010,06,13,03,40,19.30
2010,06,13,03,41,19.30
2010,06,13,03,42,22.50
2010,06,13,03,43,17.70
2010,06,13,03,44,24.20
2010,06,13,03,45,20.90
2010,06,13,03,46,16.10
2010,06,13,03,47,24.20
2010,06,13,03,48,6.40
2010,06,13,03,49,16.10
2010,06,13,03,50,11.30
2010,06,13,03,51,24.20
2010,06,13,03,52,17.70
2010,06,13,03,53,19.30
2010,06,13,03,54,17.70
2010,06,13,03,55,19.30
2010,06,13,03,56,16.10
2010,06,13,03,57,20.90
2010,06,13,03,58,16.10
2010,06,13,03,59,30.60
2010,06,13,04,00,25.70
2010,06,13,04,01,24.20
2010,06,13,04,02,17.70
2010,06,13,04,03,14.50
2010,06,13,04,04,16.10
2010,06,13,04,05,20.90
2010,06,13,04,06,22.50
2010,06,13,04,07,17.70
2010,06,13,04,08,11.30
2010,06,13,04,09,16.10
2010,06,13,04,10,8.10
2010,06,13,04,11,19.30
2010,06,13,04,12,14.50
2010,06,13,04,13,14.50
2010,06,13,04,14,12.90
2010,06,13,04,15,4.80
2010,06,13,04,16,8.10
2010,06,13,04,17,9.60
2010,06,13,04,18,17.70
2010,06,13,04,19,12.90
2010,06,13,04,20,8.10
2010,06,13,04,21,9.60
2010,06,13,04,22,11.30
2010,06,13,04,23,3.20
2010,06,13,04,24,8.10
2010,06,13,04,25,8.10
2010,06,13,04,26,6.40
2010,06,13,04,27,14.50
2010,06,13,04,28,12.90
2010,06,13,04,29,8.10
2010,06,13,04,30,6.40
2010,06,13,04,31,11.30
2010,06,13,04,32,8.10
2010,06,13,04,33,17.70
2010,06,13,04,34,16.10
2010,06,13,04,35,9.60
2010,06,13,04,36,4.80
2010,06,13,04,37,4.80
2010,06,13,04,38,3.20
2010,06,13,04,39,8.10
2010,06,13,04,40,6.40
2010,06,13,04,41,6.40
2010,06,13,04,42,8.10
2010,06,13,04,43,9.60
2010,06,13,04,44,16.10
2010,06,13,04,45,9.60
2010,06,13,04,46,19.30
2010,06,13,04,47,17.70
2010,06,13,04,48,20.90
2010,06,13,04,49,25.70
2010,06,13,04,50,22.50
2010,06,13,04,51,27.40
2010,06,13,04,52,20.90
2010,06,13,04,53,29.00
2010,06,13,04,54,17.70
2010,06,13,04,55,20.90
2010,06,13,04,56,24.20
2010,06,13,04,57,16.10
2010,06,13,04,58,16.10
2010,06,13,04,59,19.30
2010,06,13,05,00,14.50
2010,06,13,05,01,12.90
2010,06,13,05,02,11.30
2010,06,13,05,03,17.70
2010,06,13,05,04,16.10
2010,06,13,05,05,16.10
2010,06,13,05,06,16.10
2010,06,13,05,07,19.30
2010,06,13,05,08,20.90
2010,06,13,05,09,11.30
2010,06,13,05,10,17.70
2010,06,13,05,11,16.10
2010,06,13,05,12,11.30
2010,06,13,05,13,17.70
2010,06,13,05,14,19.30
2010,06,13,05,15,17.70
2010,06,13,05,16,16.10
2010,06,13,05,17,16.10
2010,06,13,05,18,17.70
2010,06,13,05,19,17.70
2010,06,13,05,20,11.30
2010,06,13,05,21,12.90
2010,06,13,05,22,17.70
2010,06,13,05,23,19.30
2010,06,13,05,24,19.30
2010,06,13,05,25,19.30
2010,06,13,05,26,17.70
2010,06,13,05,27,17.70
2010,06,13,05,28,19.30
2010,06,13,05,29,17.70
2010,06,13,05,30,14.50
2010,06,13,05,31,16.10
2010,06,13,05,32,12.90
2010,06,13,05,33,11.30
2010,06,13,05,34,17.70
2010,06,13,05,35,17.70
2010,06,13,05,36,24.20
2010,06,13,05,37,16.10
2010,06,13,05,38,19.30
2010,06,13,05,39,22.50
2010,06,13,05,40,17.70
2010,06,13,05,41,16.10
2010,06,13,05,42,16.10
2010,06,13,05,43,19.30
2010,06,13,05,44,16.10
2010,06,13,05,45,14.50
2010,06,13,05,46,14.50
2010,06,13,05,47,20.90
2010,06,13,05,48,20.90
2010,06,13,05,49,17.70
2010,06,13,05,50,17.70
2010,06,13,05,51,20.90
2010,06,13,05,52,16.10
2010,06,13,05,53,11.30
2010,06,13,05,54,17.70
2010,06,13,05,55,17.70
2010,06,13,05,56,17.70
2010,06,13,05,57,17.70
2010,06,13,05,58,14.50
2010,06,13,05,59,16.10
2010,06,13,06,00,19.30
2010,06,13,06,01,8.10
2010,06,13,06,02,16.10
2010,06,13,06,03,11.30
2010,06,13,06,04,16.10
2010,06,13,06,05,24.20
2010,06,13,06,06,17.70
2010,06,13,06,07,11.30
2010,06,13,06,08,16.10
2010,06,13,06,09,11.30
2010,06,13,06,10,17.70
2010,06,13,06,11,17.70
2010,06,13,06,12,19.30
2010,06,13,06,13,14.50
2010,06,13,06,14,16.10
2010,06,13,06,15,19.30
2010,06,13,06,16,19.30
2010,06,13,06,17,19.30
2010,06,13,06,18,17.70
2010,06,13,06,19,19.30
2010,06,13,06,20,24.20
2010,06,13,06,21,20.90
2010,06,13,06,22,16.10
2010,06,13,06,23,22.50
2010,06,13,06,24,19.30
2010,06,13,06,25,16.10
2010,06,13,06,26,16.10
2010,06,13,06,27,16.10
2010,06,13,06,28,20.90
2010,06,13,06,29,12.90
2010,06,13,06,30,16.10
2010,06,13,06,31,16.10
2010,06,13,06,32,11.30
2010,06,13,06,33,19.30
2010,06,13,06,34,11.30
2010,06,13,06,35,16.10
2010,06,13,06,36,14.50
2010,06,13,06,37,14.50
2010,06,13,06,38,14.50
2010,06,13,06,39,16.10
2010,06,13,06,40,19.30
2010,06,13,06,41,16.10
2010,06,13,06,42,9.60
2010,06,13,06,43,9.60
2010,06,13,06,44,11.30
2010,06,13,06,45,8.10
2010,06,13,06,46,8.10
2010,06,13,06,47,6.40
2010,06,13,06,48,19.30
2010,06,13,06,49,16.10
2010,06,13,06,50,11.30
2010,06,13,06,51,16.10
2010,06,13,06,52,17.70
2010,06,13,06,53,14.50
2010,06,13,06,54,20.90
2010,06,13,06,55,17.70
2010,06,13,06,56,24.20
2010,06,13,06,57,20.90
2010,06,13,06,58,16.10
2010,06,13,06,59,17.70
2010,06,13,07,00,17.70
2010,06,13,07,01,22.50
2010,06,13,07,02,11.30
2010,06,13,07,03,9.60
2010,06,13,07,04,11.30
2010,06,13,07,05,16.10
2010,06,13,07,06,20.90
2010,06,13,07,07,25.70
2010,06,13,07,08,25.70
2010,06,13,07,09,17.70
2010,06,13,07,10,17.70
2010,06,13,07,11,20.90
2010,06,13,07,12,19.30
2010,06,13,07,13,16.10
2010,06,13,07,14,22.50
2010,06,13,07,15,20.90
2010,06,13,07,16,27.40
2010,06,13,07,17,27.40
2010,06,13,07,18,19.30
2010,06,13,07,19,27.40
2010,06,13,07,20,24.20
2010,06,13,07,21,22.50
2010,06,13,07,22,20.90
2010,06,13,07,23,17.70
2010,06,13,07,24,11.30
2010,06,13,07,25,25.70
2010,06,13,07,26,22.50
2010,06,13,07,27,19.30
2010,06,13,07,28,17.70
2010,06,13,07,29,16.10
2010,06,13,07,30,27.40
2010,06,13,07,31,22.50
2010,06,13,07,32,17.70
2010,06,13,07,33,20.90
2010,06,13,07,34,22.50
2010,06,13,07,35,20.90
2010,06,13,07,36,19.30
2010,06,13,07,37,19.30
2010,06,13,07,38,19.30
2010,06,13,07,39,17.70
2010,06,13,07,40,16.10
2010,06,13,07,41,24.20
2010,06,13,07,42,22.50
2010,06,13,07,43,22.50
2010,06,13,07,44,22.50
2010,06,13,07,45,22.50
2010,06,13,07,46,16.10
2010,06,13,07,47,22.50
2010,06,13,07,48,27.40
2010,06,13,07,49,17.70
2010,06,13,07,50,22.50
2010,06,13,07,51,25.70
2010,06,13,07,52,25.70
2010,06,13,07,53,19.30
2010,06,13,07,54,16.10
2010,06,13,07,55,19.30
2010,06,13,07,56,24.20
2010,06,13,07,57,24.20
2010,06,13,07,58,14.50
2010,06,13,07,59,24.20
2010,06,13,08,00,17.70
2010,06,13,08,01,22.50
2010,06,13,08,02,22.50
2010,06,13,08,03,16.10
2010,06,13,08,04,22.50
2010,06,13,08,05,20.90
2010,06,13,08,06,16.10
2010,06,13,08,07,14.50
2010,06,13,08,08,11.30
2010,06,13,08,09,27.40
2010,06,13,08,10,27.40
2010,06,13,08,11,25.70
2010,06,13,08,12,17.70
2010,06,13,08,13,17.70
2010,06,13,08,14,20.90
2010,06,13,08,15,20.90
2010,06,13,08,16,20.90
2010,06,13,08,17,17.70
2010,06,13,08,18,19.30
2010,06,13,08,19,17.70
2010,06,13,08,20,20.90
2010,06,13,08,21,20.90
2010,06,13,08,22,22.50
2010,06,13,08,23,20.90
2010,06,13,08,24,24.20
2010,06,13,08,25,25.70
2010,06,13,08,26,19.30
2010,06,13,08,27,20.90
2010,06,13,08,28,20.90
2010,06,13,08,29,24.20
2010,06,13,08,30,25.70
2010,06,13,08,31,17.70
2010,06,13,08,32,12.90
2010,06,13,08,33,17.70
2010,06,13,08,34,17.70
2010,06,13,08,35,20.90
2010,06,13,08,36,17.70
2010,06,13,08,37,19.30
2010,06,13,08,38,16.10
2010,06,13,08,39,11.30
2010,06,13,08,40,16.10
2010,06,13,08,41,16.10
2010,06,13,08,42,16.10
2010,06,13,08,43,9.60
2010,06,13,08,44,14.50
2010,06,13,08,45,11.30
2010,06,13,08,46,11.30
2010,06,13,08,47,11.30
2010,06,13,08,48,16.10
2010,06,13,08,49,16.10
2010,06,13,08,50,11.30
2010,06,13,08,51,20.90
2010,06,13,08,52,14.50
2010,06,13,08,53,22.50
2010,06,13,08,54,20.90
2010,06,13,08,55,19.30
2010,06,13,08,56,17.70
2010,06,13,08,57,16.10
2010,06,13,08,58,9.60
2010,06,13,08,59,17.70
2010,06,13,09,00,24.20
2010,06,13,09,01,14.50
2010,06,13,09,02,22.50
2010,06,13,09,03,22.50
2010,06,13,09,04,22.50
2010,06,13,09,05,17.70
2010,06,13,09,06,16.10
2010,06,13,09,07,8.10
2010,06,13,09,08,17.70
2010,06,13,09,09,20.90
2010,06,13,09,10,24.20
2010,06,13,09,11,19.30
2010,06,13,09,12,20.90
2010,06,13,09,13,19.30
2010,06,13,09,14,22.50
2010,06,13,09,15,22.50
2010,06,13,09,16,25.70
2010,06,13,09,17,22.50
2010,06,13,09,18,17.70
2010,06,13,09,19,19.30
2010,06,13,09,20,16.10
2010,06,13,09,21,17.70
2010,06,13,09,22,19.30
2010,06,13,09,23,9.60
2010,06,13,09,24,14.50
2010,06,13,09,25,16.10
2010,06,13,09,26,14.50
2010,06,13,09,27,11.30
2010,06,13,09,28,22.50
2010,06,13,09,29,17.70
2010,06,13,09,30,11.30
2010,06,13,09,31,22.50
2010,06,13,09,32,20.90
2010,06,13,09,33,12.90
2010,06,13,09,34,20.90
2010,06,13,09,35,14.50
2010,06,13,09,36,12.90
2010,06,13,09,37,16.10
2010,06,13,09,38,19.30
2010,06,13,09,39,16.10
2010,06,13,09,40,12.90
2010,06,13,09,41,11.30
2010,06,13,09,42,9.60
2010,06,13,09,43,9.60
2010,06,13,09,44,9.60
2010,06,13,09,45,9.60
2010,06,13,09,46,11.30
2010,06,13,09,47,11.30
2010,06,13,09,48,9.60
2010,06,13,09,49,14.50
2010,06,13,09,50,14.50
2010,06,13,09,51,16.10
2010,06,13,09,52,14.50
2010,06,13,09,53,16.10
2010,06,13,09,54,14.50
2010,06,13,09,55,20.90
2010,06,13,09,56,19.30
2010,06,13,09,57,22.50
2010,06,13,09,58,19.30
2010,06,13,09,59,16.10
2010,06,13,10,00,17.70
2010,06,13,10,01,11.30
2010,06,13,10,02,20.90
2010,06,13,10,03,19.30
2010,06,13,10,04,14.50
2010,06,13,10,05,20.90
2010,06,13,10,06,19.30
2010,06,13,10,07,17.70
2010,06,13,10,08,17.70
2010,06,13,10,09,22.50
2010,06,13,10,10,20.90
2010,06,13,10,11,20.90
2010,06,13,10,12,19.30
2010,06,13,10,13,17.70
2010,06,13,10,14,17.70
2010,06,13,10,15,17.70
2010,06,13,10,16,25.70
2010,06,13,10,17,27.40
2010,06,13,10,18,19.30
2010,06,13,10,19,20.90
2010,06,13,10,20,24.20
2010,06,13,10,21,27.40
2010,06,13,10,22,22.50
2010,06,13,10,23,29.00
2010,06,13,10,24,22.50
2010,06,13,10,25,22.50
2010,06,13,10,26,25.70
2010,06,13,10,27,20.90
2010,06,13,10,28,24.20
2010,06,13,10,29,17.70
2010,06,13,10,30,25.70
2010,06,13,10,31,25.70
2010,06,13,10,32,20.90
2010,06,13,10,33,16.10
2010,06,13,10,34,24.20
2010,06,13,10,35,22.50
2010,06,13,10,36,24.20
2010,06,13,10,37,27.40
2010,06,13,10,38,22.50
2010,06,13,10,39,24.20
2010,06,13,10,40,17.70
2010,06,13,10,41,27.40
2010,06,13,10,42,25.70
2010,06,13,10,43,24.20
2010,06,13,10,44,24.20
2010,06,13,10,45,22.50
2010,06,13,10,46,25.70
2010,06,13,10,47,22.50
2010,06,13,10,48,19.30
2010,06,13,10,49,24.20
2010,06,13,10,50,12.90
2010,06,13,10,51,22.50
2010,06,13,10,52,33.80
2010,06,13,10,53,35.40
2010,06,13,10,54,41.80
2010,06,13,10,55,17.70
2010,06,13,10,56,25.70
2010,06,13,10,57,20.90
2010,06,13,10,58,19.30
2010,06,13,10,59,24.20
2010,06,13,11,00,19.30
2010,06,13,11,01,38.60
2010,06,13,11,02,24.20
2010,06,13,11,03,24.20
2010,06,13,11,04,20.90
2010,06,13,11,05,22.50
2010,06,13,11,06,29.00
2010,06,13,11,07,24.20
2010,06,13,11,08,33.80
2010,06,13,11,09,29.00
2010,06,13,11,10,32.20
2010,06,13,11,11,35.40
2010,06,13,11,12,38.60
2010,06,13,11,13,37.00
2010,06,13,11,14,27.40
2010,06,13,11,15,24.20
2010,06,13,11,16,29.00
2010,06,13,11,17,20.90
2010,06,13,11,18,24.20
2010,06,13,11,19,19.30
2010,06,13,11,20,20.90
2010,06,13,11,21,20.90
2010,06,13,11,22,29.00
2010,06,13,11,23,25.70
2010,06,13,11,24,20.90
2010,06,13,11,25,17.70
2010,06,13,11,26,17.70
2010,06,13,11,27,29.00
2010,06,13,11,28,37.00
2010,06,13,11,29,30.60
2010,06,13,11,30,24.20
2010,06,13,11,31,20.90
2010,06,13,11,32,20.90
2010,06,13,11,33,17.70
2010,06,13,11,34,17.70
2010,06,13,11,35,29.00
2010,06,13,11,36,29.00
2010,06,13,11,37,32.20
2010,06,13,11,38,30.60
2010,06,13,11,39,19.30
2010,06,13,11,40,17.70
2010,06,13,11,41,25.70
2010,06,13,11,42,27.40
2010,06,13,11,43,30.60
2010,06,13,11,44,20.90
2010,06,13,11,45,35.40
2010,06,13,11,46,33.80
2010,06,13,11,47,22.50
2010,06,13,11,48,29.00
2010,06,13,11,49,25.70
2010,06,13,11,50,49.90
2010,06,13,11,51,32.20
2010,06,13,11,52,30.60
2010,06,13,11,53,25.70
2010,06,13,11,54,27.40
2010,06,13,11,55,20.90
2010,06,13,11,56,25.70
2010,06,13,11,57,32.20
2010,06,13,11,58,32.20
2010,06,13,11,59,30.60
2010,06,13,12,00,20.90
2010,06,13,12,01,38.60
2010,06,13,12,02,22.50
2010,06,13,12,03,27.40
2010,06,13,12,04,33.80
2010,06,13,12,05,25.70
2010,06,13,12,06,27.40
2010,06,13,12,07,24.20
2010,06,13,12,08,30.60
2010,06,13,12,09,24.20
2010,06,13,12,10,30.60
2010,06,13,12,11,19.30
2010,06,13,12,12,24.20
2010,06,13,12,13,22.50
2010,06,13,12,14,40.20
2010,06,13,12,15,35.40
2010,06,13,12,16,29.00
2010,06,13,12,17,30.60
2010,06,13,12,18,25.70
2010,06,13,12,19,33.80
2010,06,13,12,20,32.20
2010,06,13,12,21,37.00
2010,06,13,12,22,24.20
2010,06,13,12,23,40.20
2010,06,13,12,24,41.80
2010,06,13,12,25,35.40
2010,06,13,12,26,32.20
2010,06,13,12,27,29.00
2010,06,13,12,28,25.70
2010,06,13,12,29,19.30
2010,06,13,12,30,30.60
2010,06,13,12,31,27.40
2010,06,13,12,32,27.40
2010,06,13,12,33,35.40
2010,06,13,12,34,33.80
2010,06,13,12,35,27.40
2010,06,13,12,36,38.60
2010,06,13,12,37,41.80
2010,06,13,12,38,41.80
2010,06,13,12,39,35.40
2010,06,13,12,40,37.00
2010,06,13,12,41,40.20
2010,06,13,12,42,33.80
2010,06,13,12,43,25.70
2010,06,13,12,44,33.80
2010,06,13,12,45,32.20
2010,06,13,12,46,27.40
2010,06,13,12,47,37.00
2010,06,13,12,48,48.30
2010,06,13,12,49,35.40
2010,06,13,12,50,37.00
2010,06,13,12,51,33.80
2010,06,13,12,52,30.60
2010,06,13,12,53,37.00
2010,06,13,12,54,43.50
2010,06,13,12,55,41.80
2010,06,13,12,56,32.20
2010,06,13,12,57,46.70
2010,06,13,12,58,43.50
2010,06,13,12,59,33.80
2010,06,13,13,00,48.30
2010,06,13,13,01,43.50
2010,06,13,13,02,32.20
2010,06,13,13,03,30.60
2010,06,13,13,04,33.80
2010,06,13,13,05,35.40
2010,06,13,13,06,38.60
2010,06,13,13,07,43.50
2010,06,13,13,08,35.40
2010,06,13,13,09,32.20
2010,06,13,13,10,40.20
2010,06,13,13,11,27.40
2010,06,13,13,12,25.70
2010,06,13,13,13,24.20
2010,06,13,13,14,27.40
2010,06,13,13,15,37.00
2010,06,13,13,16,30.60
2010,06,13,13,17,29.00
2010,06,13,13,18,32.20
2010,06,13,13,19,30.60
2010,06,13,13,20,37.00
2010,06,13,13,21,38.60
2010,06,13,13,22,41.80
2010,06,13,13,23,41.80
2010,06,13,13,24,30.60
2010,06,13,13,25,32.20
2010,06,13,13,26,37.00
2010,06,13,13,27,46.70
2010,06,13,13,28,32.20
2010,06,13,13,29,24.20
2010,06,13,13,30,30.60
2010,06,13,13,31,35.40
2010,06,13,13,32,27.40
2010,06,13,13,33,30.60
2010,06,13,13,34,41.80
2010,06,13,13,35,38.60
2010,06,13,13,36,30.60
2010,06,13,13,37,29.00
2010,06,13,13,38,22.50
2010,06,13,13,39,24.20
2010,06,13,13,40,48.30
2010,06,13,13,41,29.00
2010,06,13,13,42,27.40
2010,06,13,13,43,27.40
2010,06,13,13,44,20.90
2010,06,13,13,45,24.20
2010,06,13,13,46,35.40
2010,06,13,13,47,29.00
2010,06,13,13,48,25.70
2010,06,13,13,49,38.60
2010,06,13,13,50,32.20
2010,06,13,13,51,43.50
2010,06,13,13,52,40.20
2010,06,13,13,53,38.60
2010,06,13,13,54,24.20
2010,06,13,13,55,30.60
2010,06,13,13,56,45.10
2010,06,13,13,57,35.40
2010,06,13,13,58,37.00
2010,06,13,13,59,33.80
2010,06,13,14,00,30.60
2010,06,13,14,01,35.40
2010,06,13,14,02,29.00
2010,06,13,14,03,33.80
2010,06,13,14,04,37.00
2010,06,13,14,05,35.40
2010,06,13,14,06,35.40
2010,06,13,14,07,43.50
2010,06,13,14,08,37.00
2010,06,13,14,09,35.40
2010,06,13,14,10,53.10
2010,06,13,14,11,38.60
2010,06,13,14,12,53.10
2010,06,13,14,13,38.60
2010,06,13,14,14,30.60
2010,06,13,14,15,29.00
2010,06,13,14,16,32.20
2010,06,13,14,17,38.60
2010,06,13,14,18,37.00
2010,06,13,14,19,40.20
2010,06,13,14,20,37.00
2010,06,13,14,21,48.30
2010,06,13,14,22,40.20
2010,06,13,14,23,43.50
2010,06,13,14,24,40.20
2010,06,13,14,25,24.20
2010,06,13,14,26,45.10
2010,06,13,14,27,40.20
2010,06,13,14,28,48.30
2010,06,13,14,29,66.00
2010,06,13,14,30,61.20
2010,06,13,14,31,41.80
2010,06,13,14,32,43.50
2010,06,13,14,33,40.20
2010,06,13,14,34,54.70
2010,06,13,14,35,37.00
2010,06,13,14,36,37.00
2010,06,13,14,37,37.00
2010,06,13,14,38,45.10
2010,06,13,14,39,45.10
2010,06,13,14,40,48.30
2010,06,13,14,41,38.60
2010,06,13,14,42,29.00
2010,06,13,14,43,30.60
2010,06,13,14,44,35.40
2010,06,13,14,45,41.80
2010,06,13,14,46,29.00
2010,06,13,14,47,30.60
2010,06,13,14,48,25.70
2010,06,13,14,49,35.40
2010,06,13,14,50,38.60
2010,06,13,14,51,40.20
2010,06,13,14,52,37.00
2010,06,13,14,53,38.60
2010,06,13,14,54,33.80
2010,06,13,14,55,25.70
2010,06,13,14,56,30.60
2010,06,13,14,57,29.00
2010,06,13,14,58,32.20
2010,06,13,14,59,30.60
2010,06,13,15,00,40.20
2010,06,13,15,01,38.60
2010,06,13,15,02,32.20
2010,06,13,15,03,25.70
2010,06,13,15,04,29.00
2010,06,13,15,05,27.40
2010,06,13,15,06,37.00
2010,06,13,15,07,40.20
2010,06,13,15,08,27.40
2010,06,13,15,09,43.50
2010,06,13,15,10,41.80
2010,06,13,15,11,40.20
2010,06,13,15,12,48.30
2010,06,13,15,13,41.80
2010,06,13,15,14,48.30
2010,06,13,15,15,38.60
2010,06,13,15,16,40.20
2010,06,13,15,17,32.20
2010,06,13,15,18,38.60
2010,06,13,15,19,40.20
2010,06,13,15,20,30.60
2010,06,13,15,21,29.00
2010,06,13,15,22,40.20
2010,06,13,15,23,38.60
2010,06,13,15,24,32.20
2010,06,13,15,25,43.50
2010,06,13,15,26,30.60
2010,06,13,15,27,45.10
2010,06,13,15,28,41.80
2010,06,13,15,29,30.60
2010,06,13,15,30,45.10
2010,06,13,15,31,41.80
2010,06,13,15,32,41.80
2010,06,13,15,33,33.80
2010,06,13,15,34,41.80
2010,06,13,15,35,29.00
2010,06,13,15,36,24.20
2010,06,13,15,37,43.50
2010,06,13,15,38,30.60
2010,06,13,15,39,48.30
2010,06,13,15,40,43.50
2010,06,13,15,41,45.10
2010,06,13,15,42,35.40
2010,06,13,15,43,32.20
2010,06,13,15,44,38.60
2010,06,13,15,45,30.60
2010,06,13,15,46,38.60
2010,06,13,15,47,37.00
2010,06,13,15,48,35.40
2010,06,13,15,49,35.40
2010,06,13,15,50,37.00
2010,06,13,15,51,30.60
2010,06,13,15,52,33.80
2010,06,13,15,53,41.80
2010,06,13,15,54,46.70
2010,06,13,15,55,35.40
2010,06,13,15,56,30.60
2010,06,13,15,57,53.10
2010,06,13,15,58,45.10
2010,06,13,15,59,30.60
2010,06,13,16,00,33.80
2010,06,13,16,01,37.00
2010,06,13,16,02,32.20
2010,06,13,16,03,43.50
2010,06,13,16,04,43.50
2010,06,13,16,05,33.80
2010,06,13,16,06,37.00
2010,06,13,16,07,43.50
2010,06,13,16,08,27.40
2010,06,13,16,09,38.60
2010,06,13,16,10,35.40
2010,06,13,16,11,33.80
2010,06,13,16,12,33.80
2010,06,13,16,13,29.00
2010,06,13,16,14,35.40
2010,06,13,16,15,40.20
2010,06,13,16,16,43.50
2010,06,13,16,17,41.80
2010,06,13,16,18,32.20
2010,06,13,16,19,35.40
2010,06,13,16,20,37.00
2010,06,13,16,21,43.50
2010,06,13,16,22,38.60
2010,06,13,16,23,27.40
2010,06,13,16,24,38.60
2010,06,13,16,25,46.70
2010,06,13,16,26,41.80
2010,06,13,16,27,43.50
2010,06,13,16,28,33.80
2010,06,13,16,29,40.20
2010,06,13,16,30,30.60
2010,06,13,16,31,27.40
2010,06,13,16,32,32.20
2010,06,13,16,33,30.60
2010,06,13,16,34,35.40
2010,06,13,16,35,38.60
2010,06,13,16,36,29.00
2010,06,13,16,37,53.10
2010,06,13,16,38,32.20
2010,06,13,16,39,25.70
2010,06,13,16,40,29.00
2010,06,13,16,41,37.00
2010,06,13,16,42,40.20
2010,06,13,16,43,40.20
2010,06,13,16,44,29.00
2010,06,13,16,45,30.60
2010,06,13,16,46,35.40
2010,06,13,16,47,37.00
2010,06,13,16,48,53.10
2010,06,13,16,49,37.00
2010,06,13,16,50,38.60
2010,06,13,16,51,37.00
2010,06,13,16,52,45.10
2010,06,13,16,53,40.20
2010,06,13,16,54,49.90
2010,06,13,16,55,43.50
2010,06,13,16,56,37.00
2010,06,13,16,57,37.00
2010,06,13,16,58,53.10
2010,06,13,16,59,33.80
2010,06,13,17,00,53.10
2010,06,13,17,01,40.20
2010,06,13,17,02,35.40
2010,06,13,17,03,40.20
2010,06,13,17,04,40.20
2010,06,13,17,05,46.70
2010,06,13,17,06,32.20
2010,06,13,17,07,37.00
2010,06,13,17,08,48.30
2010,06,13,17,09,41.80
2010,06,13,17,10,38.60
2010,06,13,17,11,51.50
2010,06,13,17,12,48.30
2010,06,13,17,13,40.20
2010,06,13,17,14,40.20
2010,06,13,17,15,38.60
2010,06,13,17,16,30.60
2010,06,13,17,17,25.70
2010,06,13,17,18,30.60
2010,06,13,17,19,46.70
2010,06,13,17,20,38.60
2010,06,13,17,21,54.70
2010,06,13,17,22,37.00
2010,06,13,17,23,59.50
2010,06,13,17,24,33.80
2010,06,13,17,25,43.50
2010,06,13,17,26,41.80